TimeEST,TemperatureF,Dew PointF,Humidity,Sea Level PressureIn,VisibilityMPH,Wind Direction,Wind SpeedMPH,Gust SpeedMPH,PrecipitationIn,Events,Conditions,WindDirDegrees,DateUTC
12:53 AM,53.1,43.0,69,30.27,10.0,East,5.8,-,N/A,,Overcast,80,2006-12-31 05:53:00
1:53 AM,52.0,43.0,71,30.27,10.0,ESE,3.5,-,N/A,,Overcast,110,2006-12-31 06:53:00
2:53 AM,50.0,43.0,77,30.26,10.0,Calm,Calm,-,N/A,,Mostly Cloudy,0,2006-12-31 07:53:00
3:53 AM,48.9,43.0,80,30.24,10.0,East,5.8,-,N/A,,Partly Cloudy,80,2006-12-31 08:53:00
4:53 AM,48.9,43.0,80,30.22,10.0,Calm,Calm,-,N/A,,Partly Cloudy,0,2006-12-31 09:53:00
5:53 AM,48.9,43.0,80,30.21,10.0,ENE,4.6,-,N/A,,Scattered Clouds,60,2006-12-31 10:53:00
6:53 AM,51.1,45.0,80,30.21,10.0,North,3.5,-,N/A,,Mostly Cloudy,350,2006-12-31 11:53:00
7:53 AM,51.1,46.0,83,30.21,10.0,Calm,Calm,-,N/A,,Mostly Cloudy,0,2006-12-31 12:53:00
8:53 AM,53.1,46.9,80,30.16,10.0,ENE,9.2,-,N/A,,Overcast,60,2006-12-31 13:53:00
9:53 AM,55.9,48.9,77,30.19,10.0,Calm,Calm,-,N/A,,Overcast,0,2006-12-31 14:53:00
10:53 AM,60.1,50.0,69,30.16,10.0,Calm,Calm,-,0.00,,Overcast,0,2006-12-31 15:53:00
11:53 AM,64.0,51.1,63,30.12,10.0,ESE,11.5,17.3,N/A,,Overcast,120,2006-12-31 16:53:00
12:53 PM,63.0,50.0,63,30.09,10.0,SE,6.9,-,0.00,,Overcast,130,2006-12-31 17:53:00
1:53 PM,63.0,52.0,67,30.05,10.0,East,8.1,-,0.00,,Overcast,100,2006-12-31 18:53:00
2:53 PM,60.1,53.1,78,30.04,8.0,East,6.9,-,0.02,Rain,Light Rain,100,2006-12-31 19:53:00
3:53 PM,57.9,53.1,84,30.03,4.0,Variable,3.5,-,0.08,Rain,Rain,0,2006-12-31 20:53:00
4:53 PM,55.9,54.0,93,30.01,4.0,ENE,4.6,-,0.16,Rain,Rain,60,2006-12-31 21:53:00
5:53 PM,55.0,53.1,93,30.00,10.0,ENE,3.5,-,0.13,Rain,Light Rain,60,2006-12-31 22:53:00
6:53 PM,55.0,52.0,89,29.98,10.0,NNE,4.6,-,0.00,,Overcast,30,2006-12-31 23:53:00
7:53 PM,59.0,51.1,75,29.96,10.0,Calm,Calm,-,N/A,,Overcast,0,2007-01-01 00:53:00
8:53 PM,57.9,53.1,84,29.94,8.0,ESE,8.1,-,0.02,Rain,Rain,110,2007-01-01 01:53:00
9:12 PM,57.2,55.4,94,29.96,4.0,ESE,5.8,-,0.06,Rain,Rain,110,2007-01-01 02:12:00
9:41 PM,59.0,55.4,88,29.95,10.0,ESE,6.9,-,0.12,Rain,Light Rain,120,2007-01-01 02:41:00
9:53 PM,59.0,55.9,90,29.94,7.0,SE,8.1,-,0.13,Rain,Light Rain,140,2007-01-01 02:53:00
10:53 PM,57.9,55.9,93,29.95,3.0,West,11.5,-,0.06,Rain,Heavy Rain,260,2007-01-01 03:53:00
11:22 PM,57.2,51.8,82,29.96,7.0,South,10.4,20.7,0.03,,Overcast,190,2007-01-01 04:22:00
11:53 PM,55.9,51.1,84,29.94,10.0,SSW,9.2,-,0.03,,Overcast,210,2007-01-01 04:53:00